This demonstration page uses our WeatherBlox Daily Observations layout. Learn more.

Left ArrowRight Arrow

Hourly Observations for August 31, 2015

Temp ( °F °C ) Dew Point ( °F °C ) Humidity (%) Winds ( mph kmh ) Pressure ( in mb ) Visibility ( mi km ) Precip ( " mm )
12:53 am 00:53 Clear 72 22.2 45 7.2 38 38 N 5 7 29.90 1013 10 16 0.00 0.00
1:53 am 01:53 Clear 68 20 46 7.8 45 45 Calm 29.89 1012 10 16 0.00 0.00
2:53 am 02:53 Clear 66 18.9 47 8.3 50 50 NNW 3 6 29.88 1012 10 16 0.00 0.00
3:53 am 03:53 Clear 68 20 48 8.9 49 49 NNW 5 7 29.88 1012 10 16 0.00 0.00
4:53 am 04:53 Clear 67 19.4 49 9.4 53 53 NW 3 6 29.88 1012 10 16 0.00 0.00
5:53 am 05:53 Clear 70 21.1 49 9.4 47 47 NW 6 9 29.88 1012 10 16 0.00 0.00
6:53 am 06:53 Sunny 69 20.6 49 9.4 49 49 NW 6 9 29.89 1012 10 16 0.00 0.00
7:53 am 07:53 Sunny 72 22.2 49 9.4 44 44 NW 7 11 29.89 1012 10 16 0.00 0.00
8:53 am 08:53 Sunny 77 25 49 9.4 37 37 NNW 6 9 29.88 1012 10 16 0.00 0.00
9:53 am 09:53 Sunny 81 27.2 46 7.8 29 29 N 8 13 29.88 1012 10 16 0.00 0.00
10:53 am 10:53 Sunny 85 29.4 46 7.8 26 26 N 8 13 29.87 1012 10 16 0.00 0.00
11:53 am 11:53 Sunny 88 31.1 44 6.7 22 22 VRB 6 9 29.85 1011 10 16 0.00 0.00
12:53 pm 12:53 Sunny 92 33.3 42 5.6 18 18 NE 6 9 29.83 1010 10 16 0.00 0.00
1:53 pm 13:53 Sunny 94 34.4 39 3.9 15 15 SSW 9 15 29.80 1009 10 16 0.00 0.00
2:53 pm 14:53 Sunny 95 35 40 4.4 15 15 VRB 3 6 29.78 1008 10 16 0.00 0.00
3:53 pm 15:53 Sunny 96 35.6 38 3.3 13 13 VRB 5 7 29.75 1008 10 16 0.00 0.00
4:53 pm 16:53 Sunny 97 36.1 39 3.9 13 13 VRB 6 9 29.74 1007 10 16 0.00 0.00
5:53 pm 17:53 Sunny 96 35.6 42 5.6 15 15 SSE 14 22 29.73 1007 10 16 0.00 0.00
6:53 pm 18:53 Sunny 93 33.9 44 6.7 18 18 S 13 20 29.73 1007 10 16 0.00 0.00
7:53 pm 19:53 Clear 87 30.6 45 7.2 23 23 S 10 17 29.74 1007 10 16 0.00 0.00
8:53 pm 20:53 Clear 83 28.3 45 7.2 26 26 S 3 6 29.76 1008 10 16 0.00 0.00
9:53 pm 21:53 Clear 80 26.7 44 6.7 28 28 E 3 6 29.78 1009 10 16 0.00 0.00
10:53 pm 22:53 Clear 77 25 45 7.2 32 32 N 5 7 29.79 1009 10 16 0.00 0.00
11:53 pm 23:53 Clear 73 22.8 45 7.2 37 37 Calm 29.80 1009 10 16 0.00 0.00

Powered by AerisWeather